Regional Weather Roundup
Issued by NWS Newport/Morehead, NC

Current Version | Previous Version | Graphics & Text | Print | Product List | Glossary On
Versions: 1 2 3 4 5 6 7 8 9 10 11 12 13 14 15 16 17 18 19 20 21 22 23 24 25 26 27 28 29 30 31 32 33 34 35 36 37 38 39 40 41 42 43 44 45 46 47 48 49 50
000 ASUS42 KMHX 271725 RWRMHX WEATHER ROUNDUP FOR EASTERN NORTH CAROLINA NATIONAL WEATHER SERVICE NEWPORT/MOREHEAD CITY NC 100 PM EDT WED MAY 27 2015 NOTE: "FAIR" INDICATES FEW OR NO CLOUDS BELOW 12,000 FEET WITH NO SIGNIFICANT WEATHER AND/OR OBSTRUCTIONS TO VISIBILITY NCZ015>017-031-032-045>047-102-103-271800- NORTH COAST CITY SKY/WX TMP DP RH WIND PRES REMARKS EDENTON N/A 82 72 71 S12 30.25F ELIZABETH CITY MOSUNNY 82 71 69 SW13G21 30.26S KITTY HAWK CLOUDY 78 65 65 S7G16 30.27S MANTEO CLOUDY 77 65 65 S15 30.29S $$ NCZ045>047-081-094-103-104-271800- CENTRAL COAST CITY SKY/WX TMP DP RH WIND PRES REMARKS FRISCO CLOUDY 79 63 57 S12 30.31S SWANQUARTER N/A 81 N/A N/A S12G21 30.24S $$ NCZ095-097-098-100-101-271800- SOUTHERN COAST CITY SKY/WX TMP DP RH WIND PRES REMARKS BEAUFORT CLOUDY 78 66 66 SE13 30.29S CEDAR ISLAND N/A 82 N/A N/A S10G17 30.33S JACKSONVILLE PTSUNNY 81 67 62 S10 30.26F PINEY ISLAND CLOUDY N/A N/A N/A S12 30.28F WILMINGTON PTSUNNY 81 68 64 SE10 30.26S $$ NCZ011>013-027>030-043-044-078>080-089-090>093-098-271800- COASTAL PLAIN CITY SKY/WX TMP DP RH WIND PRES REMARKS AHOSKIE LGT RAIN 80 71 72 CALM 30.24S CLINTON MOSUNNY 82 70 67 W9 30.26S ELIZABETHTOWN PTSUNNY 84 69 61 S5 30.24F GOLDSBORO PTSUNNY 84 69 60 VRB5 30.22F GREENVILLE MOSUNNY 86 70 58 S8 30.25S HAVELOCK PTSUNNY 82 68 62 S9 30.29S KENANSVILLE MOSUNNY 83 67 57 S5 30.26F KINSTON PTSUNNY 82 70 65 W6 30.25F NEW BERN MOSUNNY 83 68 60 S9 30.27F RICHLANDS PTSUNNY 82 68 61 E8 30.26S ROCKY MOUNT MOSUNNY 86 68 54 SW8G17 30.24F WASHINGTON MOSUNNY 83 70 64 S6 30.25F WHITEVILLE PTSUNNY 83 68 60 S5 30.25S $$ AMZ130-135-150-152-154-156-158-170-250-252-270-ANZ085-086-088-633-658-670-271800- MARINE OBSERVATIONS STATION/POSITION TIME TEMP WIND PRES WAVE SWELL AIR SEA DIR/SP/G HT/PER HT/PER (UTC) (F) (DEG/KT/KT) (MB) (FT/S) (FT/S) CHESAPEAKE LIGHT 1700 69 170/ 27/ 28 1023.8 64 E VA BEACH 1650 67 63 170/ 12/ 14 1025.3 3/ 5 2/ 5 DUCK 1700 75 56 170/ 14/ 17 1023.7 2 E DUCK 1611 64 N/A 2/ 5 OREGON INLET 1700 75 76 180/ 15/ 16 1025.8 13E OREGON INLT 1700 70 N/A 2/ 6 HATTERAS CG 1700 77 74 160/ 8/ 11 1025.9 DIAMOND BUOY 1650 75 77 170/ 12/ 12 1026.6 3/ 7 2/ 7 CAPE LOOKOUT 1700 74 150/ 13/ 14 1025.5 BEAUFORT LAB 1700 77 75 170/ 10/ 12 1024.8 27 SE WRIGHTSVLE 1700 77 190/ 6/ 6 N/A 5 SE WRIGHTSVLE 1608 77 77 180/ 10/ 12 1025.3 225 S CAPE HAT 1650 74 75 90/ 10/ 12 1026.4 4/ 7 3/ 7 41 SE CHARLESTON 1650 77 78 110/ 8/ 10 1024.7 3/ 7 3/ 7 $$

USA.gov is the U.S. government's official web portal to all federal, state and local government web resources and services.